This demonstration page uses our WeatherBlox Daily Observations layout. Learn more.

Left ArrowRight Arrow

Hourly Observations for July 10, 2022

Temp ( °F °C ) Dew Point ( °F °C ) Humidity (%) Winds ( mph kmh ) Pressure ( in mb ) Visibility ( mi km ) Precip ( " mm )
12:41 am 00:41 Cloudy with Mist and Fog 70 21.1 68 20 93 93 NE 9 15 29.98 1015 4 6 0.03 0.76
12:59 am 00:59 Cloudy with Light Rain 72 22.2 68 20 87 87 NE 10 17 29.98 1015 9 14 0.03 0.76
1:06 am 01:06 Cloudy with Light Rain 71 21.7 68 20 90 90 NE 13 20 29.98 1015 9 14 0.00 0.00
1:44 am 01:44 Cloudy with Light Rain 70 21.1 68 20 93 93 NE 14 22 29.99 1016 6 10 0.00 0.00
1:59 am 01:59 Cloudy with Light Rain 70 21.1 68 20 93 93 NNE 15 24 29.98 1015 7 11 0.00 0.00
2:27 am 02:27 Cloudy with Light Rain 70 21.1 68 20 93 93 NE 14 22 29.98 1015 10 16 0.00 0.00
2:59 am 02:59 Cloudy with Light Rain 69 20.6 68 20 96 96 NE 14 22 29.98 1015 10 16 0.00 0.00
3:59 am 03:59 Cloudy with Light Rain 69 20.6 68 20 96 96 NE 14 22 29.97 1015 8 13 0.00 0.00
4:30 am 04:30 Cloudy with Light Rain 69 20.6 68 20 96 96 NE 14 22 29.97 1015 10 16 0.00 0.00
4:59 am 04:59 Cloudy with Light Rain 69 20.6 68 20 96 96 NE 15 24 29.97 1015 10 16 0.00 0.00
5:59 am 05:59 Cloudy with Light Rain 69 20.6 68 20 96 96 ENE 13 20 29.98 1015 6 10 0.01 0.25
6:05 am 06:05 Cloudy with Light Rain 69 20.6 68 20 96 96 ENE 14 22 29.98 1015 5 8 0.00 0.00
6:59 am 06:59 Cloudy with Light Rain 69 20.6 68 20 96 96 ENE 14 22 29.99 1016 1 2 0.02 0.51
7:21 am 07:21 Cloudy with Light Rain 69 20.6 68 20 96 96 NE 15 24 29.99 1016 2 3 0.01 0.25
7:43 am 07:43 Cloudy with Mist and Fog 69 20.6 69 20.6 100 100 NE 16 26 30.00 1016 4 6 0.01 0.25
7:59 am 07:59 Cloudy with Mist and Fog 69 20.6 69 20.6 100 100 NE 14 22 30.00 1016 3 5 0.01 0.25
8:59 am 08:59 Cloudy with Mist and Fog 70 21.1 70 21.1 100 100 NE 14 22 30.01 1016 6 10 0.00 0.00
9:59 am 09:59 Cloudy 69 20.6 69 20.6 100 100 NE 13 20 30.02 1017 9 14 0.00 0.00
10:37 am 10:37 Cloudy with Mist and Fog 69 20.6 69 20.6 100 100 E 9 15 30.03 1017 6 10 0.00 0.00
10:59 am 10:59 Cloudy with Mist and Fog 70 21.1 68 20 93 93 NE 10 17 30.02 1017 6 10 0.00 0.00
11:37 am 11:37 Cloudy with Light Rain 70 21.1 68 20 93 93 ENE 8 13 30.03 1017 4 6 0.00 0.00
11:54 am 11:54 Cloudy with Light Rain 70 21 68 20 94 94 ENE 7 11 30.03 1017 7 11 0.00 0.00
11:59 am 11:59 Cloudy 72 22.2 69 20.6 91 91 ENE 6 9 30.03 1017 7 11 0.00 0.00
12:30 pm 12:30 Cloudy with Light Rain 72 22.2 69 20.6 91 91 E 13 20 30.03 1017 3 5 0.00 0.00
12:59 pm 12:59 Cloudy with Mist and Fog 68 20 67 19.4 96 96 E 10 17 30.02 1017 5 8 0.00 0.00
1:59 pm 13:59 Cloudy with Light Rain 70 21.1 68 20 93 93 E 8 13 30.02 1017 4 6 0.02 0.51
2:18 pm 14:18 Cloudy with Light Rain 70 21.1 68 20 93 93 ENE 9 15 30.03 1017 3 4 0.04 1.02
2:23 pm 14:23 Cloudy with Light Rain 70 21.1 68 20 93 93 ENE 13 20 30.03 1017 3 5 0.05 1.27
2:39 pm 14:39 Cloudy with Light Rain 70 21.1 68 20 93 93 NE 13 20 30.02 1017 3 4 0.07 1.78
2:59 pm 14:59 Cloudy with Light Rain 70 21.1 68 20 93 93 NE 17 28 30.02 1017 3 4 0.12 3.05
3:59 pm 15:59 Cloudy with Light Rain 68 20 61 16.1 78 78 ENE 16 26 30.01 1016 4 6 0.10 2.54
4:59 pm 16:59 Cloudy with Light Rain 66 18.9 61 16.1 84 84 ENE 14 22 30.01 1016 10 16 0.02 0.51
5:59 pm 17:59 Cloudy with Light Rain 67 19.4 60 15.6 79 79 NE 12 19 30.02 1017 7 11 0.00 0.00
6:59 pm 18:59 Cloudy 68 20 62 16.7 81 81 ENE 14 22 30.01 1016 8 13 0.02 0.51
7:59 pm 19:59 Mostly Cloudy with Light Rain 68 20 62 16.7 81 81 ENE 14 22 30.01 1016 8 13 0.00 0.00
8:59 pm 20:59 Mostly Cloudy with Light Rain 69 20.6 61 16.1 76 76 E 8 13 29.99 1016 10 16 0.00 0.00
9:59 pm 21:59 Mostly Cloudy with Light Rain 69 20.6 61 16.1 76 76 E 14 22 29.99 1016 10 16 0.01 0.25
10:59 pm 22:59 Cloudy 71 21.7 66 18.9 84 84 ENE 16 26 30.00 1016 10 16 0.00 0.00
11:59 pm 23:59 Cloudy 71 21.7 67 19.4 87 87 NE 9 15 30.00 1016 10 16 0.00 0.00

Powered by AerisWeather